Volver al catálogo

FLOCK 4H 31

ActivoCienciaSSO
NORAD 66734·PAYLOAD·🇺🇸 United States

Lanzado Nov 28, 2025 desde Vandenberg Space Force Base

Loading…

Próximos Pases (próximas 24 horas)

TLE

ActualizadoSource: CelesTrak SupGP

Época: Sep 14, 2026, 12:45 UTC

1 66734C 25276BW  26257.53140046  .00008887  00000+0  40666-3 0  2575
2 66734  97.4093 329.3891 0005118  76.7552 111.3433 15.20577561    18

Sigue FLOCK 4H 31 en tiempo real con AllMySat

Download on the App Store